GFSFLT2_prec_radar_072.txt.gz
Reflectivity
6 -13 -8 2 -19 33 32 9 -20 17 -10 23 -7 29 11 12 8 11 4 -20 -20 -20 -20 -20 -20 -20 -20 -20 -20 -20 -20 -20
-1 21 11 -20 -20 -20 -20 -2 35 6 30 0 25 10 11 -17 -20 -20 -20 -20 -20 -20 -20 -20 -20 -20 -20 -20 -20 -20 -20 -20
18 4 35 9 28 20 24 28 29 25 31 32 20 30 -15 -15 -20 -10 -20 -20 -20 -20 -20 -20 -20 -20 -20 -20 -20 -20 -20 -20
1 3 10 13 29 44 30 25 29 34 30 25 35 22 -19 -13 -16 -20 -20 -20 -20 -20 -20 -20 -20 -20 -20 -20 -20 -20 -20 -20
9 3 3 18 31 27 40 39 36 25 28 30 34 25 5 -20 1 -20 -20 -20 -20 -20 -20 -20 -20 -20 -20 -20 -20 -20 -20 -20
-20 -2 5 13 35 39 36 32 28 24 35 37 22 24 -17 6 -20 -20 -20 -20 -20 -20 -20 -20 -20 -20 -8 -20 -20 -20 -20 -20
-8 12 15 9 23 25 25 26 33 35 35 32 13 7 -8 -20 8 -20 -20 -20 -20 -20 -20 -20 -20 -20 -20 -20 -20 -20 -20 -20
1 -1 11 5 21 24 27 21 29 30 33 23 15 11 4 -5 3 -20 -20 -20 -20 -20 -20 -20 -20 -20 -20 -20 -20 -20 -20 -20
9 -13 25 23 22 32 20 18 19 26 27 23 -6 5 -8 1 4 -3 -20 -20 -20 -20 -20 -20 -20 -20 -20 -20 -20 -20 -20 -20
-0 9 13 28 15 34 30 11 22 13 21 9 -14 -18 9 13 10 -14 -20 -20 -20 -20 -20 -17 -15 -20 -20 -20 -20 -20 -20 -20
13 12 1 16 5 25 20 28 25 25 17 -8 -13 -11 8 7 4 -14 -20 -20 -20 -20 -20 -20 -20 -20 -20 -20 -20 -20 -20 -20
1 4 11 11 14 8 28 24 21 15 17 8 7 14 2 10 -19 -16 -20 -20 -20 -20 -20 -20 -20 -20 -20 -20 -20 -20 -20 -20
7 -20 -7 12 30 15 11 20 7 16 22 15 17 13 22 4 -20 -20 -20 -16 -18 -20 -20 -20 -20 -20 -20 -20 -20 -20 -20 -20
5 -7 8 -4 -20 -9 -13 7 19 20 4 17 10 -18 -20 -20 7 8 2 12 0 -20 -3 -1 -13 -6 -11 -20 -19 -20 -20 -20
-10 -20 0 -0 4 17 21 29 18 20 28 15 15 -0 -20 -20 21 27 25 7 5 -20 -20 -4 -11 -16 -11 8 -20 -20 6 -20
-20 -20 -3 -2 -20 -16 -17 10 3 -0 -7 -1 22 19 -9 -11 27 22 24 3 -20 -18 -17 3 -19 18 -15 -20 -20 -20 -20 19
-8 -20 -0 -4 -20 -20 -20 -20 -20 4 19 22 23 21 6 -14 24 27 23 -1 -3 22 20 -20 -20 7 -12 30 -20 -20 -20 -20
-20 -20 -20 -20 -4 -4 -20 -20 -20 -12 -19 4 22 24 27 13 24 14 22 -4 3 25 -13 -20 -20 1 24 -8 4 -20 -8 -18
-20 -20 -20 -15 -2 1 -14 -2 5 -20 -20 5 -17 9 17 8 11 -3 -1 -14 1 -9 2 24 -20 -20 28 -20 -20 -20 -20 -20
-20 -20 -20 -20 -20 -20 -20 -2 7 -0 -20 -20 -20 -20 -20 -20 -19 -19 -20 -20 -8 24 19 -20 -16 -14 -20 -20 -20 -20 -20 -20

GFSFLT2_prec_radar_075.txt.gz
Reflectivity
31 11 -20 -20 -20 22 25 44 35 4 -19 6 -20 -19 -20 -5 -20 -20 -20 6 -9 -14 -20 -20 -20 -20 -20 -20 -20 -20 -20 -20
3 27 31 9 -19 5 34 39 42 39 27 -3 -18 -20 -19 13 -20 -7 6 14 -3 -20 -20 -20 -20 -20 -20 -20 -20 -20 -20 -20
-9 -1 5 17 19 -19 21 25 34 41 36 -5 24 9 31 8 8 -5 12 5 -20 -20 -20 -20 -20 -20 -20 -20 -20 -20 -20 -20
-6 -11 -12 -9 -19 23 2 -14 30 38 27 6 36 38 32 -10 -5 2 5 -19 -20 -20 -20 -20 -20 -20 -20 -20 -20 -20 -20 -20
10 12 12 26 19 10 -1 6 31 23 15 3 25 33 16 30 21 1 1 -20 -20 -20 -20 -20 -20 -20 -20 -20 -20 -20 -20 -20
10 -15 -4 -17 -20 -13 10 5 11 33 -14 34 32 32 25 21 24 -3 -19 -20 -20 -20 -20 -20 -20 -20 -20 -20 -20 -20 -20 -20
15 5 -0 -6 -20 -11 19 5 33 30 33 34 32 32 24 16 22 -19 -20 -20 -20 -20 -20 -20 -20 -20 -20 -20 -20 -20 -20 -20
-9 13 -5 -14 -7 -11 -6 28 8 21 25 32 35 28 9 24 22 -2 -19 -20 -20 -20 -20 -20 -20 -20 -20 -20 -20 -20 -20 -20
6 -14 13 -20 -6 0 8 11 25 30 34 37 33 29 29 18 -4 6 -20 -20 -20 -20 -20 -20 -20 -20 -20 -20 -20 -20 -20 -20
2 10 -13 -2 8 -18 25 -4 23 29 27 34 32 24 15 14 -17 -10 -16 -20 -20 -20 -20 -20 -20 -20 -20 -20 -20 -20 -20 -20
-5 -5 -20 -20 -8 16 21 19 10 16 24 30 32 26 15 4 1 -6 -3 -12 6 -20 -20 -20 -20 -20 -20 -20 -20 -20 -20 -20
-5 8 8 -20 23 11 7 29 10 14 16 14 16 12 -8 -19 -20 -11 -14 19 14 -20 -20 -20 -20 -20 -20 -20 -20 -20 -20 -20
7 12 3 6 14 20 8 16 6 11 -2 -15 -16 0 4 -12 -20 -3 21 13 -20 -20 -20 -20 -20 -20 -20 -20 -20 -20 -20 -20
1 6 7 1 -18 2 7 10 3 18 6 12 -7 -14 -16 -16 -5 -18 -20 -20 -20 -20 -20 -20 -20 -20 -20 -20 -18 -13 -20 -20
-7 6 -13 5 7 4 0 6 14 17 10 -2 -14 -13 -2 -9 -17 -15 -10 -19 -12 -7 -20 -20 -20 -20 -20 24 19 -5 -19 -17
-11 -7 3 3 6 -6 -20 -19 5 3 7 -20 -7 9 8 -19 -20 -20 -20 -20 -20 -20 -20 -20 28 25 -12 -20 -20 12 32 28
-20 -20 9 -16 5 -16 -16 -19 -12 19 15 23 13 12 11 -16 -20 -20 -20 -20 -15 -20 -20 22 29 26 16 9 -11 15 -20 26
-20 -20 -1 5 6 9 -9 13 3 -9 -6 17 3 5 17 15 -13 -20 -7 5 15 -6 -14 9 -0 25 18 18 -13 -9 -20 -3
-20 -20 -20 -20 3 8 1 7 8 -17 6 -13 -8 8 14 2 -2 -14 -4 5 -3 -6 -5 -6 -20 -3 19 22 26 -20 -20 -20
-20 -20 -20 -20 -20 1 1 -17 -2 -20 -20 -20 5 -20 -20 -20 -19 4 3 26 23 1 8 10 -9 3 6 -15 -15 -20 -20 -11

GFSFLT2_prec_radar_078.txt.gz
Reflectivity
-2 -20 -20 -20 -20 -7 4 20 31 45 24 -5 -16 7 -17 -8 -20 -20 -20 -20 -20 -20 -15 -20 -19 -20 -20 -20 -20 -20 -20 -20
-5 16 -20 -20 -20 13 -9 19 34 45 30 10 5 -20 -11 -20 -14 -20 -20 -20 -20 -20 9 -20 -20 -20 -20 -20 -20 -20 -20 -20
-7 -11 -4 24 -14 -20 -18 6 38 44 35 7 32 -19 -19 -20 -20 -20 -20 -20 -20 14 1 -15 -20 -20 -20 -20 -20 -20 -20 -20
-20 -20 -7 8 11 -20 -18 10 24 45 45 32 27 -3 0 9 30 -18 -20 -20 -6 15 -18 -20 -20 -20 -20 -20 -20 -20 -20 -20
-20 -9 -6 32 -7 2 -10 5 16 22 43 35 22 4 7 32 8 -20 -20 -20 -2 10 -20 -20 -20 -20 -20 -20 -20 -20 -20 -20
4 9 -20 -20 -20 -20 8 25 -3 -15 38 34 13 20 6 31 19 -3 -20 -13 22 13 -19 -20 -20 -20 -20 -20 -20 -20 -20 -20
5 -0 -10 -20 -20 -20 -10 6 16 22 15 36 22 13 4 26 18 -5 -15 3 26 6 -20 -20 -20 -20 -20 -20 -20 -20 -20 -20
-20 11 -0 -6 -0 -20 -20 -20 20 15 -2 18 16 28 4 20 14 11 8 -8 11 -20 -20 -20 -20 -20 -20 -20 -20 -20 -20 -20
-20 11 -20 11 8 -20 5 20 16 25 15 23 21 14 -4 19 14 14 14 5 -12 -20 -20 -20 -20 -20 -20 -20 -20 -20 -20 -20
1 -20 10 -1 9 -18 -20 -20 -12 23 22 17 10 5 23 20 4 2 -20 2 -16 -20 -20 -20 -20 -20 -20 -20 -20 -20 -20 -20
2 -2 -9 -17 8 -11 -20 -20 -11 -2 1 20 20 14 6 5 21 7 -12 -2 -20 -14 -20 -20 -20 -20 -20 -20 -20 -20 -20 -20
-3 -9 -10 -15 -14 -20 -18 -20 8 3 -1 -5 3 2 20 25 26 38 10 31 -17 -20 -20 -5 -18 -20 -17 -20 -20 -20 -20 -20
-20 -15 -20 -6 19 -9 -18 -20 -20 4 -20 -6 -20 -20 -9 -0 12 10 12 26 -14 -20 -20 1 14 1 -20 -20 -20 -20 -20 -20
-7 -16 -12 -20 2 -9 -2 -17 -20 -8 -18 -20 -20 -20 -3 -19 -20 -9 -4 -12 6 1 -16 26 8 -17 -20 -20 -20 -20 -20 -20
-20 -2 -7 -13 -20 -8 -16 -12 -7 -3 7 -18 -17 -20 -18 -20 -7 -20 -18 -10 -14 -18 17 -11 -16 -20 -20 -20 -1 -20 -20 -20
-20 -19 -18 -20 -3 -19 -20 0 3 -20 -20 -20 -20 -20 -20 -20 -20 -17 -20 -20 -14 11 10 3 -1 -19 -20 -20 -20 5 0 -20
-20 -20 -6 -3 -10 -3 5 12 -17 -20 -19 -4 -16 -20 -19 -3 -15 -20 -20 -20 -20 -9 3 11 3 -15 -20 -6 -20 -20 -19 -20
-20 -20 -12 -3 -3 -7 -18 17 -6 -20 -20 -19 3 5 -11 -4 -11 -20 -20 -20 -20 -20 19 10 -13 -20 7 6 -20 7 22 8
-20 -20 -20 -12 3 -10 -20 -20 -20 -20 -20 -20 -20 -20 -20 -16 -19 -1 10 -12 -20 -20 10 -7 -20 -20 -15 -1 19 13 11 -15
-20 -20 -20 -20 -20 -12 -17 -20 -20 -20 -20 -20 -20 -20 -20 -20 -20 -20 -20 -19 -20 2 -17 -20 -1 15 -7 -20 -12 -20 -18 -4

GFSFLT2_prec_radar_081.txt.gz
Reflectivity
-20 -20 -20 -20 -20 -20 -20 -20 -20 -3 -0 36 41 34 5 14 1 -20 -18 -7 4 -20 -20 -20 -20 -20 -20 -9 -20 -20 -20 -20
-20 -20 -20 -20 -20 -20 -20 -20 -20 -20 -20 33 43 12 -4 -20 26 10 -20 -20 -15 -20 -20 -20 -20 -20 -20 -20 -20 -20 -20 -20
-20 6 11 -20 -20 -20 -16 -12 -2 10 23 39 33 22 -17 -20 -18 3 -19 -20 -20 -20 -20 -20 -20 -19 4 -20 -20 -20 -20 -20
-20 -20 -13 -14 -20 13 -20 -9 4 23 32 43 31 33 -20 -20 -20 -14 -20 -20 -20 -20 -20 -20 5 -1 -12 -13 -20 -20 -20 -20
-20 -20 -20 -20 -20 1 -20 -13 1 20 36 42 32 26 -20 -20 -20 -20 -20 -20 -20 -20 -20 -17 14 -19 -20 -20 -20 -20 -20 -20
-18 -19 -19 -15 -20 -20 -20 -20 1 12 38 41 27 17 -20 -19 -20 -14 -20 -20 -20 -20 -20 -1 2 -20 -20 -20 -20 -20 -20 -20
-20 -17 -12 -15 -20 -20 -20 -0 -13 7 23 32 31 16 -6 -4 11 -8 -19 12 -1 -20 -20 0 -10 -20 -20 -20 -20 -20 -20 -20
-20 -20 -20 -20 -20 -20 -20 8 -12 14 19 12 -11 25 17 1 -17 -20 -20 4 -5 -20 -20 8 -10 -20 -20 -20 -20 -20 -20 -20
-20 -20 -20 -20 -20 -20 -20 -19 13 0 -13 7 -14 9 27 -10 -5 -20 -20 -20 -20 -20 -18 7 -11 -20 -20 -20 -20 -20 -20 -20
-20 -18 -7 -20 -20 -20 -12 -13 6 21 17 -3 -20 9 20 16 3 -11 -18 -20 -20 9 6 11 -20 -20 -20 -20 -20 -20 -20 -20
-20 -3 8 3 -20 -20 -20 -20 -15 16 -2 22 -12 29 23 12 3 23 -3 -6 -19 -2 7 6 -20 -20 -20 -20 -20 -20 -20 -20
-20 -16 13 12 -6 -20 -20 -20 -20 11 6 6 16 4 14 5 21 29 16 10 -20 -18 8 3 -20 -20 -20 -20 -20 -20 -20 -20
-20 2 -20 10 -20 -20 -20 -20 -20 -20 -20 9 21 5 15 -5 16 5 -18 -18 -20 -20 -20 -20 -20 -20 -20 -17 -6 -19 -20 -20
-20 -20 -9 9 -16 1 -7 -19 -20 -20 -14 13 17 13 11 3 0 -12 14 11 -17 -20 -20 -20 -5 9 4 22 -7 -20 -15 -20
-20 -19 -20 -20 -0 3 -17 -12 -8 -12 -13 -20 -19 -20 -20 -12 -1 7 17 24 -3 2 -20 8 -8 -8 -0 13 -18 -13 -16 -20
-20 -20 -20 -20 12 -19 -17 -16 11 -17 -20 -20 -20 -20 -20 -20 -20 -2 6 13 2 10 7 2 -9 -20 -17 -13 -18 -20 -20 -20
-20 -20 -16 -20 -20 4 -10 -20 -20 -6 -20 -20 -20 -20 -20 -19 -20 -20 -20 -11 -20 -16 -20 -15 -15 -19 -13 -4 -20 8 -17 -20
-20 -20 -20 -20 -20 -13 -20 -20 -20 -20 -20 -20 -20 -20 -20 -20 -20 -20 -20 -20 -20 -20 -20 -20 -19 6 -20 -20 -20 -20 -20 -20
-20 -20 -20 -10 -20 -3 -11 -20 3 -20 -20 -20 -20 -6 -20 -20 -20 -18 -20 -20 -20 -19 -20 -20 -20 -20 -20 -20 -20 -20 -20 2
-20 -20 -20 -20 -9 -19 -8 -10 -10 -15 -10 -20 -20 -19 -15 -20 -20 -20 -1 5 -7 1 17 20 -14 -11 -16 14 8 -20 -20 19

GFSFLT2_prec_radar_084.txt.gz
Reflectivity
-20 -20 -20 -20 -20 -20 6 -9 -20 -20 -20 4 25 35 34 30 4 -3 -20 -20 -7 -20 -20 -20 -20 -20 7 -13 -20 -20 -20 -20
-20 -20 -15 -20 -20 -20 -20 -20 -20 26 -20 -20 -13 33 40 31 17 -8 -20 -20 -20 5 -20 -19 -20 -20 -8 -20 -20 -20 -20 -20
-20 -20 -20 -20 -20 -20 -20 -9 -20 -20 -20 -11 -18 32 36 34 35 15 -20 -20 -20 -20 -19 -18 -20 -20 -20 -20 -20 -20 -20 -20
-20 -8 -6 -20 -20 -20 -20 -19 -18 -20 -20 -13 -20 14 33 30 25 3 20 -20 -20 -20 -20 -20 -20 -20 5 -12 -1 -11 -20 -20
-20 -20 -20 -20 -20 -20 -12 -9 -20 -6 -19 8 30 28 29 11 -20 -20 11 -20 -20 -20 -20 -20 -20 -20 -5 14 -20 3 -4 -20
-20 -20 -20 -20 -20 -20 -20 -20 2 7 7 31 33 33 24 18 -20 -19 -20 -18 -20 -20 -20 -20 -20 -20 -8 21 -20 -1 -20 -20
-20 -20 -20 -16 -20 -20 -20 -20 -15 13 16 31 38 29 22 -20 -20 -20 -16 -20 -20 -20 -20 -20 -20 -12 7 3 -20 -20 -20 -20
-20 -20 -18 -14 -9 -19 -20 -20 -16 12 13 32 34 31 16 -6 -20 -17 -19 -20 -20 -20 -20 -20 -20 -19 5 7 -20 -20 -20 -20
-20 -20 -20 -20 -20 -20 -20 -20 -13 9 16 28 36 28 -0 -13 -20 -20 -20 -19 -19 18 7 -20 -20 -20 2 8 -20 -20 -20 -20
-20 -20 -20 -20 -20 -20 -20 -17 -16 10 22 9 24 23 24 -12 -1 -19 -19 -20 -20 -20 -20 -19 -16 -20 7 -1 -20 -20 -20 -20
-20 -20 -20 -20 -20 -20 -20 -20 -11 17 14 19 9 -12 -11 29 13 4 -19 -20 -20 -20 -20 -20 -20 -20 11 -20 -20 -20 -20 -20
-20 -20 -20 -20 -20 -6 -20 -1 -15 10 13 18 17 12 -0 14 17 14 -9 -20 -20 -20 -20 -20 -20 -20 12 -15 -4 -18 -20 -20
-20 -20 -20 -16 -20 -19 19 7 11 9 13 13 28 8 20 20 23 16 9 4 11 -1 -20 -20 -2 -14 -3 9 -0 -2 -18 -20
-20 -20 -11 3 -6 -20 -20 -20 -7 -2 2 21 25 12 19 21 23 17 15 17 12 4 -18 -20 -18 -2 -3 -14 7 12 7 1
-20 -20 -16 -18 -20 -13 -5 -0 0 -6 0 7 23 17 16 17 20 5 16 2 7 -3 -20 -20 -5 -5 -20 -20 1 18 26 1
-20 -20 -8 -20 -3 -7 -8 -20 13 16 -18 -20 -17 6 13 9 -0 11 20 17 10 -20 -20 -20 -15 -20 -3 -15 -5 3 7 -20
-20 -20 -20 -20 11 -1 -3 -20 -20 -20 -20 -20 -20 5 -8 8 -4 17 5 14 13 21 9 -18 -10 -2 6 6 5 -10 -11 -20
-20 -20 -20 -20 10 -15 -7 -19 -20 -20 -20 -20 -20 -20 -20 -20 -2 12 -7 12 28 21 21 17 5 -20 -12 -20 -20 -20 4 -20
-20 -20 -20 -20 -20 -18 6 3 -20 -20 -20 -20 -20 -20 -20 -20 7 -5 -19 -16 22 24 19 -6 -15 -10 -20 -19 -19 -20 -20 -20
-20 -20 -20 -20 -19 -20 -18 1 -20 -20 -20 -20 -20 -20 7 8 -14 -14 -12 -20 -20 -17 3 3 -14 -20 -20 -20 -20 -20 -20 -20

GFSFLT2_prec_radar_087.txt.gz
Reflectivity
-20 -20 -20 -17 -13 6 16 -20 31 29 16 21 35 7 -12 12 26 27 9 -8 -20 14 -20 -0 -20 -20 -20 -20 -20 -20 -20 -20
-20 -20 -20 -20 -20 -20 -20 -14 -18 -19 -20 -20 -20 -20 -7 2 22 32 36 28 -7 -18 9 -20 -20 -16 -20 -20 -20 -20 -20 -20
-20 -20 -5 -20 -20 -20 -20 -20 -20 -20 -20 -14 -20 -20 -20 6 29 31 36 -19 -20 11 -6 16 -7 -20 -20 -20 -20 -20 -20 -11
-20 -20 -20 -20 -20 -20 -20 -20 -20 -15 -9 -20 -20 -20 -20 -1 29 34 38 -20 -20 -20 -20 10 12 -8 9 -20 -20 -20 -20 -20
-20 -20 -13 -20 -20 -20 -20 -20 -20 -18 5 -4 -20 -20 2 16 28 36 35 -20 -20 -9 -20 13 -14 -3 -20 -20 -20 -20 -20 -20
-20 -20 -10 -20 -20 -20 -20 -20 -20 -20 -1 7 -18 -3 1 27 25 34 28 -20 -20 -20 -20 -18 5 -20 -20 -20 -20 -20 -12 -20
-20 -20 -20 -20 1 2 -8 -20 -20 10 8 24 18 15 23 32 27 18 -20 -20 -20 -20 -20 -20 -17 -20 -20 -20 -20 -18 -3 -20
-20 -20 -20 -20 -19 11 9 -5 -20 4 2 27 32 34 18 23 15 -11 -20 -20 -20 -20 -20 -20 -13 -20 -20 -20 -20 -0 -14 -20
-20 -20 -20 -20 -20 -20 -6 8 -10 -4 16 17 38 33 34 28 -1 -20 -20 -20 -20 -20 -20 -20 -9 -18 -20 -20 -20 12 -6 -20
-20 -20 -20 -20 -20 -20 -20 -13 -8 17 8 29 31 36 30 6 -20 -19 4 -1 -20 -19 -20 -16 26 8 -4 -20 -20 5 -5 -20
-20 -20 -20 -20 -20 -8 3 -20 -13 -1 11 27 33 36 29 16 3 -4 -5 -1 -19 -19 -20 -20 2 -7 -19 -9 -18 4 -17 -20
-20 -20 -20 -20 -20 -20 -12 2 2 -6 17 25 27 32 33 22 2 -10 9 -15 -20 -20 -20 -20 -20 -20 -20 -20 -20 -20 -6 -20
-20 -20 -20 -20 -20 -20 5 8 7 -1 19 29 23 29 33 28 33 27 26 -6 -20 -20 -1 -16 -20 -20 -20 -20 -20 -20 -14 -12
3 -20 -20 -20 -20 -20 -20 0 7 -18 -9 -8 33 23 18 17 14 25 26 4 -6 -19 -20 -11 -9 -20 -20 -19 -9 -20 5 3
-19 -20 -20 -20 -20 -18 -20 -20 -14 -15 -3 15 9 26 21 24 31 30 24 15 3 6 -9 -20 -20 -20 -4 -2 -20 -20 5 3
-20 -20 -20 -20 -20 -20 -20 -20 -20 -20 -17 1 21 25 23 12 25 25 27 30 22 11 7 -4 -19 -17 -3 7 4 5 11 6
-20 -20 -14 -20 -20 -20 -20 -20 -20 -18 -20 1 7 20 22 11 19 19 25 9 11 9 16 -4 -20 -20 -20 -20 -20 -17 8 3
-20 -20 -20 -20 -20 -20 -20 -20 -20 -7 -9 -20 -7 15 16 21 9 18 -17 -0 11 7 7 -19 -20 -20 -20 -20 -20 -15 -3 -1
-20 -20 -20 -20 -6 -18 -20 -20 -20 -20 -20 -20 -20 -20 -20 -3 6 23 -14 11 2 10 14 -10 -20 -20 -20 -20 -13 3 9 10
-20 -20 -20 -20 -20 -14 -20 -20 -20 -20 -20 -20 -20 -20 -20 -20 -20 -20 -7 -20 7 11 19 11 14 2 10 5 -8 -19 12 10